"Time","Temp","Dewpoint","Humidity","Pressure","Direction","Speed","Gust","Precip","PrecipRate"
"00:04:57","38.3","35.3","89","30.31","351","0","0","0.00","0.00"
"00:09:59","38.2","35.3","89.3","30.31","351","0","0","0.00","0.00"
"00:14:59","38.1","35.2","89.3","30.31","351","0","0","0.00","0.00"
"00:19:58","38","35.3","90","30.31","351","0","0","0.00","0.00"
"00:24:57","37.9","35.2","90","30.31","351","0","0","0.00","0.00"
"00:29:59","37.9","35.2","90","30.31","351","0","0","0.00","0.00"
"00:34:59","37.8","35.1","90","30.31","351","0","0","0.00","0.00"
"00:39:59","37.7","35","90","30.31","351","0","0","0.00","0.00"
"00:44:58","37.6","34.9","90","30.31","351","0","0","0.00","0.00"
"00:49:57","37.4","34.7","90","30.31","351","0","0","0.00","0.00"
"00:54:56","37.3","34.6","90","30.31","351","0","0","0.00","0.00"
"00:59:59","37.2","34.7","90.6","30.31","351","0","0","0.00","0.00"
"01:04:59","37.2","34.8","91","30.31","351","0","0","0.00","0.00"
"01:09:57","37.1","34.7","91","30.31","351","0","0","0.00","0.00"
"01:14:57","37","34.6","91","30.31","351","0","0","0.00","0.00"
"01:19:56","37","34.6","91","30.31","351","0","0","0.00","0.00"
"01:24:59","37","34.6","91","30.31","351","0","0","0.00","0.00"
"01:29:58","36.9","34.5","91","30.31","351","0","0","0.00","0.00"
"01:34:57","36.8","34.4","91","30.31","351","0","0","0.00","0.00"
"01:39:57","36.7","34.3","91","30.31","351","0","0","0.00","0.00"
"01:44:56","36.6","34.3","91.2","30.31","351","0","0","0.00","0.00"
"01:49:59","36.6","34.3","91.5","30.31","351","0","0","0.00","0.00"
"01:54:58","36.5","34.3","91.5","30.31","351","0","0","0.00","0.00"
"01:59:58","36.5","34.4","92","30.31","351","0","0","0.00","0.00"
"02:04:58","36.5","34.4","92","30.31","351","0","0","0.00","0.00"
"02:09:57","36.6","34.5","92","30.31","351","0","0","0.00","0.00"
"02:14:57","36.6","34.5","92","30.31","351","0","0","0.00","0.00"
"02:19:59","36.5","34.4","92","30.31","351","0","0","0.00","0.00"
"02:24:58","36.4","34.3","92","30.31","351","0","0","0.00","0.00"
"02:29:57","36.3","34.2","92","30.31","351","0","0","0.00","0.00"
"02:34:56","36.2","34.1","92","30.31","351","0","0","0.00","0.00"
"02:39:56","36.1","34","92","30.31","351","0","0","0.00","0.00"
"02:44:59","36.1","34","92","30.31","351","0","0","0.00","0.00"
"02:49:56","36","33.9","92","30.31","351","0","0","0.00","0.00"
"02:54:59","35.9","33.8","92","30.31","351","0","0","0.00","0.00"
"02:59:57","35.8","33.7","92","30.31","351","0","0","0.00","0.00"
"03:04:58","35.8","33.7","92","30.31","351","0","0","0.00","0.00"
"03:09:56","35.7","33.6","92","30.31","351","0","0","0.00","0.00"
"03:14:56","35.7","33.6","92","30.31","351","0","0","0.00","0.00"
"03:19:59","35.6","33.6","92.1","30.31","351","0","0","0.00","0.00"
"03:24:58","35.6","33.8","93","30.31","351","0","0","0.00","0.00"
"03:29:57","35.6","33.8","93","30.31","351","0","0","0.00","0.00"
"03:34:56","35.5","33.7","93","30.31","351","0","0","0.00","0.00"
"03:39:58","35.4","33.6","93","30.31","351","0","0","0.00","0.00"
"03:44:58","35.4","33.6","93","30.31","351","0","0","0.00","0.00"
"03:49:58","35.4","33.6","93","30.31","351","0","0","0.00","0.00"
"03:54:58","35.4","33.6","93","30.31","351","0","0","0.00","0.00"
"03:59:56","35.3","33.5","93","30.32","351","0","0","0.00","0.00"
"04:04:57","35.3","33.5","93","30.32","351","0","0","0.00","0.00"
"04:09:59","35.2","33.4","93","30.32","351","0","0","0.00","0.00"
"04:14:57","35.2","33.4","93","30.32","351","0","0","0.00","0.00"
"04:19:57","35.1","33.3","93","30.32","351","0","0","0.00","0.00"
"04:24:58","35.1","33.3","93","30.32","351","0","0","0.00","0.00"
"04:29:56","35","33.2","93","30.34","351","0","0","0.00","0.00"
"04:34:56","34.9","33.1","93","30.34","351","0","0","0.00","0.00"
"04:39:59","34.9","33.1","93","30.34","351","0","0","0.00","0.00"
"04:44:59","34.9","33.1","93","30.34","351","0","0","0.00","0.00"
"04:49:57","34.9","33.1","93","30.34","351","0","0","0.00","0.00"
"04:54:56","34.9","33.1","93","30.34","351","0","0","0.00","0.00"
"04:59:59","34.8","33","93","30.34","351","0","0","0.00","0.00"
"05:04:59","34.8","33","93","30.34","351","0","0","0.00","0.00"
"05:09:57","34.8","33","93","30.34","351","0","0","0.00","0.00"
"05:14:56","34.8","33","93.1","30.34","351","0","0","0.00","0.00"
"05:19:59","34.9","33.3","94","30.34","351","0","0","0.00","0.00"
"05:24:58","35","33.4","94","30.34","351","0","0","0.00","0.00"
"05:29:56","35","33.4","94","30.34","351","0","0","0.00","0.00"
"05:34:59","35","33.4","94","30.34","351","0","0","0.00","0.00"
"05:39:59","34.8","33.2","93.8","30.34","351","0","0","0.00","0.00"
"05:44:58","34.7","33","93.2","30.34","351","0","0","0.00","0.00"
"05:49:56","34.6","32.8","93","30.34","351","0","0","0.00","0.00"
"05:54:59","34.6","32.9","93.3","30.34","351","0","0","0.00","0.00"
"05:59:58","34.5","33","94","30.35","351","0","0","0.00","0.00"
"06:04:57","34.5","33","94","30.35","351","0","0","0.00","0.00"
"06:09:57","34.5","33","94","30.35","351","0","0","0.00","0.00"
"06:14:56","34.4","32.9","94","30.36","351","0","0","0.00","0.00"
"06:19:58","34.4","32.9","94","30.36","351","0","0","0.00","0.00"
"06:24:57","34.4","32.9","94","30.36","351","0","0","0.00","0.00"
"06:29:59","34.4","32.9","94","30.36","351","0","0","0.00","0.00"
"06:34:58","34.4","32.9","94","30.36","351","0","0","0.00","0.00"
"06:39:58","34.3","32.8","94","30.36","351","0","0","0.00","0.00"
"06:44:56","34.3","32.8","94","30.36","351","0","0","0.00","0.00"
"06:49:58","34.3","32.8","94","30.36","351","0","0","0.00","0.00"
"06:54:56","34.3","32.8","94","30.36","351","0","0","0.00","0.00"
"06:59:58","34.3","32.8","94","30.36","351","0","0","0.00","0.00"
"07:04:58","34.3","32.8","94","30.36","351","0","0","0.00","0.00"
"07:09:56","34.3","32.8","94","30.36","351","0","0","0.00","0.00"
"07:14:59","34.3","32.8","94","30.36","351","0","0","0.00","0.00"
"07:19:57","34.2","32.7","94","30.36","351","0","0","0.00","0.00"
"07:24:56","34.1","32.6","94","30.36","351","0","0","0.00","0.00"
"07:29:57","34.1","32.6","94","30.37","351","0","0","0.00","0.00"
"07:34:56","34.1","32.6","94","30.37","351","0","0","0.00","0.00"
"07:39:59","34.1","32.6","94","30.37","351","0","0","0.00","0.00"
"07:44:58","34.2","32.7","94","30.38","351","0","0","0.00","0.00"
"07:49:56","34.2","32.7","94","30.38","351","0","0","0.00","0.00"
"07:54:57","34.3","32.8","94","30.38","351","0","0","0.00","0.00"
"07:59:59","34.4","32.9","94","30.39","351","0","0","0.00","0.00"
"08:04:56","34.4","32.9","94","30.39","351","0","0","0.00","0.00"
"08:09:59","34.5","33","94","30.39","351","0","0","0.00","0.00"
"08:14:59","34.7","33.2","94.1","30.40","351","0","0","0.00","0.00"
"08:19:57","35","33.7","95","30.40","351","0","0","0.00","0.00"
"08:24:59","35.5","34.2","95","30.40","351","0","0","0.00","0.00"
"08:29:57","35.9","34.6","95","30.40","351","0","0","0.00","0.00"
"08:34:59","36.2","34.9","95","30.40","351","0","0","0.00","0.00"
"08:39:58","36.4","35.1","95","30.40","351","0","0","0.00","0.00"
"08:44:57","36.9","35.6","95","30.41","351","0","0","0.00","0.00"
"08:49:58","37.6","36.3","95","30.41","351","0","0","0.00","0.00"
"08:54:56","38.5","37.3","95.4","30.41","351","0","0","0.00","0.00"
"08:59:57","39.5","38.3","95.6","30.41","351","0","0","0.00","0.00"
"09:04:57","40.5","39.2","95.3","30.41","351","0","0","0.00","0.00"
"09:09:59","42.1","39.4","90","30.41","351","0","0","0.00","0.00"
"09:14:59","43.5","39.7","86.4","30.41","351","0","0","0.00","0.00"
"09:19:56","44.5","40.2","84.7","30.41","351","0","0","0.00","0.00"
"09:24:58","44.8","40.3","83.9","30.41","351","0","0","0.00","0.00"
"09:29:59","45.6","40.5","82.6","30.41","351","0","0","0.00","0.00"
"09:34:58","45.7","40.7","82.5","30.41","351","0","0","0.00","0.00"
"09:39:56","46.5","41.1","81.3","30.41","351","0","0","0.00","0.00"
"09:44:58","47.4","41.8","80.9","30.41","351","0","0","0.00","0.00"
"09:49:59","48.2","41.8","78.1","30.41","351","0","0","0.00","0.00"
"09:54:57","48.6","42.3","78.6","30.41","351","0","0","0.00","0.00"
"09:59:59","50","42.6","75.7","30.41","9","0","0","0.00","0.00"
"10:04:58","50.9","42.5","73.1","30.40","9","0","0","0.00","0.00"
"10:09:56","51.3","42.9","73","30.40","9","0","1.2","0.00","0.00"
"10:14:59","52.1","43.1","71.3","30.40","9","0.2","2.4","0.00","0.00"
"10:19:56","53.3","42.7","67.2","30.40","44","1.6","4.8","0.00","0.00"
"10:24:58","54","42.4","64.6","30.40","123","1.1","2.4","0.00","0.00"
"10:29:56","54.9","42.2","62.3","30.40","123","1","3.6","0.00","0.00"
"10:34:58","55.3","42","60.8","30.39","146","2.4","4.8","0.00","0.00"
"10:39:56","55.8","42.2","60.1","30.39","173","2.6","4.8","0.00","0.00"
"10:44:58","56.2","42.9","60.8","30.39","184","2.6","6","0.00","0.00"
"10:49:56","56.7","42.4","58.7","30.39","172","2.7","7.2","0.00","0.00"
"10:54:58","56.7","43","60.1","30.39","161","2.6","4.8","0.00","0.00"
"10:59:59","57.1","42.8","58.8","30.39","154","2.9","6","0.00","0.00"
"11:04:58","57.8","43","57.7","30.39","162","2.9","7.2","0.00","0.00"
"11:09:56","58.2","43.6","58.3","30.39","171","3","6.9","0.00","0.00"
"11:14:59","59","44.1","57.8","30.39","170","3","6","0.00","0.00"
"11:19:57","59.2","43.5","56","30.39","190","4.1","10.8","0.00","0.00"
"11:24:59","59.5","43.8","56.1","30.39","201","2.9","8.4","0.00","0.00"
"11:29:56","60.4","44.1","54.8","30.39","187","4.5","8.4","0.00","0.00"
"11:34:59","61.2","44.8","54.8","30.39","167","2.6","8.1","0.00","0.00"
"11:39:58","62.9","45.3","52.6","30.39","185","2.7","15.6","0.00","0.00"
"11:44:56","62.7","41.9","46.5","30.39","168","4.8","16.1","0.00","0.00"
"11:49:57","62.8","41.9","46.4","30.39","185","6.3","16.1","0.00","0.00"
"11:54:59","62.9","41.5","45.6","30.39","170","5.1","13.2","0.00","0.00"
"11:59:57","63.3","42.1","45.9","30.39","163","4.3","9.6","0.00","0.00"
"12:04:56","64.1","42.5","45.2","30.38","179","2.6","6","0.00","0.00"
"12:09:59","64.7","42.4","44.1","30.38","178","4.1","9.6","0.00","0.00"
"12:14:58","65.6","43.7","45.2","30.38","167","3","8.4","0.00","0.00"
"12:19:59","66.3","43","42.9","30.38","185","4.3","8.4","0.00","0.00"
"12:24:57","65.8","41.4","41","30.38","181","4.6","10.8","0.00","0.00"
"12:29:59","65.7","41.9","41.9","30.38","195","5.2","10.8","0.00","0.00"
"12:34:57","66.4","43.6","43.6","30.38","186","4.3","13.2","0.00","0.00"
"12:39:56","66","41.5","40.9","30.38","207","6.9","13.2","0.00","0.00"
"12:44:58","66","41.1","40.3","30.38","179","5.3","9.6","0.00","0.00"
"12:49:56","66.3","41.6","40.6","30.37","189","6.4","15","0.00","0.00"
"12:54:58","66.7","41.8","40.4","30.37","171","4.9","11.5","0.00","0.00"
"12:59:59","67.4","42.4","40.4","30.37","188","4.7","10.8","0.00","0.00"
"13:04:59","68","43.3","40.8","30.37","211","4","9.6","0.00","0.00"
"13:09:58","68.3","42.3","38.9","30.37","192","4.6","8.4","0.00","0.00"
"13:14:59","68.6","42.4","38.7","30.37","168","4.4","10.8","0.00","0.00"
"13:19:59","68.7","42.1","38.3","30.35","181","4.8","12","0.00","0.00"
"13:24:57","68.7","42.7","39","30.35","203","6.1","16.1","0.00","0.00"
"13:29:57","68.8","42.5","38.5","30.35","194","4.4","16.1","0.00","0.00"
"13:34:59","69.5","42.7","37.9","30.35","195","3.5","8.4","0.00","0.00"
"13:39:58","69.8","42.4","37.1","30.35","179","5.2","13.2","0.00","0.00"
"13:44:56","69.6","43.1","38.5","30.35","185","5","12.7","0.00","0.00"
"13:49:57","69.6","42.6","37.7","30.34","182","6","12","0.00","0.00"
"13:54:59","69.9","43.1","37.9","30.34","192","4.8","12","0.00","0.00"
"13:59:59","70.2","43.3","37.9","30.34","197","5.1","10.8","0.00","0.00"
"14:04:58","70.1","42.2","36.5","30.33","200","5.2","12","0.00","0.00"
"14:09:57","70.7","43.9","38","30.33","201","4.3","12","0.00","0.00"
"14:14:59","72","45.1","38.2","30.33","184","2.4","6","0.00","0.00"
"14:19:58","72.3","44.8","37.3","30.33","192","3","8.4","0.00","0.00"
"14:24:59","71.6","42.2","34.6","30.33","175","5","9.6","0.00","0.00"
"14:29:56","71.5","42.2","34.7","30.33","164","3.9","7.2","0.00","0.00"
"14:34:58","71.5","42.8","35.5","30.32","187","3.3","8.4","0.00","0.00"
"14:39:56","71.8","42.6","34.9","30.32","180","4.6","10.8","0.00","0.00"
"14:44:58","71.6","41.1","33.3","30.32","136","4.1","12","0.00","0.00"
"14:49:59","71.8","41.9","34.1","30.32","191","5","12","0.00","0.00"
"14:54:56","72","40.9","32.6","30.32","170","3.9","8.4","0.00","0.00"
"14:59:56","72.4","43","34.7","30.32","199","3.7","7.2","0.00","0.00"
"15:04:59","72.5","41.5","32.7","30.32","205","4.4","7.2","0.00","0.00"
"15:09:58","72.9","43.2","34.5","30.32","206","4.4","13.2","0.00","0.00"
"15:14:56","72.9","42.8","34","30.32","202","4.4","8.4","0.00","0.00"
"15:19:57","73","42.8","33.8","30.32","195","4","10.8","0.00","0.00"
"15:24:58","73","43.6","34.8","30.32","189","3.9","9.2","0.00","0.00"
"15:29:59","72.8","42.3","33.3","30.32","204","4.8","9.6","0.00","0.00"
"15:34:56","72.4","41.8","33.2","30.31","177","3.5","7.2","0.00","0.00"
"15:39:58","72.6","41.3","32.3","30.31","181","4.1","10.8","0.00","0.00"
"15:44:56","72.3","40.9","32.1","30.31","171","3.8","7.2","0.00","0.00"
"15:49:58","72.2","41.6","33.2","30.31","166","4.4","9.6","0.00","0.00"
"15:54:56","72.8","42.6","33.8","30.31","187","3.6","9.6","0.00","0.00"
"15:59:56","72.9","42.1","33","30.31","187","3.6","8.4","0.00","0.00"
"16:04:59","72.9","42.2","33.1","30.31","202","3.3","8.1","0.00","0.00"
"16:09:58","72.8","42.1","33.1","30.31","145","2.9","10.8","0.00","0.00"
"16:14:56","72.6","40.9","31.9","30.31","175","3.8","7.2","0.00","0.00"
"16:19:57","72.7","42","33.1","30.31","189","2.6","7.2","0.00","0.00"
"16:24:58","72.5","41.4","32.7","30.31","197","4.5","12","0.00","0.00"
"16:29:59","72.3","42.2","33.8","30.31","158","2.7","6","0.00","0.00"
"16:34:56","72.4","41.9","33.3","30.31","168","3.5","6","0.00","0.00"
"16:39:59","72.3","41.6","33","30.31","186","3.8","7.2","0.00","0.00"
"16:44:56","72.4","41.1","32.3","30.31","174","2.6","6","0.00","0.00"
"16:49:57","72.2","41","32.4","30.31","203","3.4","8.4","0.00","0.00"
"16:54:59","71.7","41.1","33","30.31","159","3.1","8.4","0.00","0.00"
"16:59:56","71.7","40.9","32.9","30.31","148","2.6","8.1","0.00","0.00"
"17:04:59","71.9","40.6","32.3","30.31","170","3.1","6","0.00","0.00"
"17:09:57","71.8","40.2","31.9","30.31","162","2","4.6","0.00","0.00"
"17:14:56","71.2","40.8","33.3","30.31","140","2.5","4.8","0.00","0.00"
"17:19:57","70.8","41","34","30.30","157","3","7.2","0.00","0.00"
"17:24:58","70.8","40.1","32.7","30.30","145","3.1","7.2","0.00","0.00"
"17:29:59","70.7","40.7","33.7","30.31","152","2.2","4.8","0.00","0.00"
"17:34:57","70.6","40.5","33.5","30.31","143","1.8","4.8","0.00","0.00"
"17:39:56","70.5","40.6","33.8","30.31","143","1.8","3.6","0.00","0.00"
"17:44:57","70.1","40.3","33.8","30.31","138","1.5","3.6","0.00","0.00"
"17:49:58","69.7","40.9","35","30.31","139","0.8","2.4","0.00","0.00"
"17:54:56","69.3","40.5","35","30.31","144","1.1","4.8","0.00","0.00"
"17:59:58","68.9","40.5","35.6","30.31","156","1.8","4.8","0.00","0.00"
"18:04:57","68.6","40.9","36.6","30.31","163","1.8","4.8","0.00","0.00"
"18:09:59","68.1","40.9","37.2","30.31","169","1.7","4.8","0.00","0.00"
"18:14:58","67.6","41","37.8","30.31","166","1.1","3.6","0.00","0.00"
"18:19:59","67.2","40.9","38.2","30.31","165","0","1.2","0.00","0.00"
"18:24:57","66.9","41","38.8","30.31","162","1.6","6","0.00","0.00"
"18:29:59","66.6","41","39.3","30.32","161","1.3","3.6","0.00","0.00"
"18:34:57","66.2","41.2","40","30.32","161","1.6","4.8","0.00","0.00"
"18:39:56","65.9","41.3","40.7","30.32","163","1.5","3.6","0.00","0.00"
"18:44:58","65.5","41.3","41.2","30.32","152","1.6","4.8","0.00","0.00"
"18:49:59","65.1","41.2","41.7","30.32","150","1.2","3.6","0.00","0.00"
"18:54:57","64.7","41.3","42.3","30.32","152","1.5","4.8","0.00","0.00"
"18:59:58","64.4","41.3","42.8","30.33","153","0.5","3.6","0.00","0.00"
"19:04:58","64.1","41.3","43.3","30.33","153","0.3","2.3","0.00","0.00"
"19:09:56","63.6","41.4","44.1","30.33","145","1.1","3.6","0.00","0.00"
"19:14:56","63.1","41.3","44.8","30.33","144","1.3","3.6","0.00","0.00"
"19:19:58","62.6","41.4","45.7","30.33","145","0.6","2.4","0.00","0.00"
"19:24:56","62.3","41.7","46.8","30.33","145","0.3","2.4","0.00","0.00"
"19:29:58","61.9","41.5","47.2","30.33","145","0.1","1.2","0.00","0.00"
"19:34:56","61.5","41.4","47.6","30.33","145","0.2","1.2","0.00","0.00"
"19:39:59","61.2","41.3","48","30.33","145","0","0","0.00","0.00"
"19:44:57","60.8","41.8","49.5","30.33","145","0","0","0.00","0.00"
"19:49:59","60.2","42.1","51.2","30.33","145","0","0","0.00","0.00"
"19:54:58","59.4","43.3","55.3","30.33","145","0","0","0.00","0.00"
"19:59:56","58.2","43.4","57.8","30.33","145","0","0","0.00","0.00"
"20:04:59","57.1","42.7","58.6","30.33","145","0","0","0.00","0.00"
"20:09:57","56.2","42.4","59.7","30.33","145","0","0","0.00","0.00"
"20:14:57","55.6","42.2","60.7","30.33","145","0","0","0.00","0.00"
"20:19:59","55","42.3","62.3","30.33","145","0","0","0.00","0.00"
"20:24:56","54.5","42.6","64","30.33","145","0","0","0.00","0.00"
"20:29:57","54.1","42.2","64","30.33","145","0","0","0.00","0.00"
"20:34:57","53.8","42.3","64.9","30.33","145","0","0","0.00","0.00"
"20:39:56","53.5","42.2","65.7","30.33","145","0","0","0.00","0.00"
"20:44:59","53.1","42.2","66.4","30.33","145","0","0","0.00","0.00"
"20:49:57","52.7","42.4","67.9","30.33","145","0","0","0.00","0.00"
"20:54:59","52.4","42.1","68","30.33","145","0","0","0.00","0.00"
"20:59:57","52","42","68.8","30.33","145","0","0","0.00","0.00"
"21:04:57","51.6","42.2","70.2","30.33","145","0","0","0.00","0.00"
"21:09:59","51.2","42.1","71","30.33","145","0","0","0.00","0.00"
"21:14:59","50.9","42.2","72","30.33","145","0","0","0.00","0.00"
"21:19:58","50.7","42.3","72.8","30.33","145","0","0","0.00","0.00"
"21:24:56","50.4","42.1","73","30.33","145","0","0","0.00","0.00"
"21:29:59","50.2","42.2","73.9","30.33","145","0","0","0.00","0.00"
"21:34:58","50","42","74","30.33","145","0","0","0.00","0.00"
"21:39:58","49.9","41.9","74","30.33","145","0","0","0.00","0.00"
"21:44:56","49.7","41.9","74.7","30.33","145","0","0","0.00","0.00"
"21:49:59","49.4","42.1","75.8","30.33","145","0","0","0.00","0.00"
"21:54:57","49.1","41.8","75.7","30.33","145","0","0","0.00","0.00"
"21:59:59","48.9","41.8","76.3","30.33","145","0","0","0.00","0.00"
"22:04:56","48.7","41.6","76.3","30.33","145","0","0","0.00","0.00"
"22:09:58","48.5","41.4","76.4","30.33","145","0","0","0.00","0.00"
"22:14:58","48.3","41.4","77","30.34","145","0","0","0.00","0.00"
"22:19:58","48","41.4","77.7","30.34","145","0","0","0.00","0.00"
"22:24:56","47.9","41.5","78.6","30.34","145","0","0","0.00","0.00"
"22:29:58","47.6","41.7","79.8","30.34","145","0","0","0.00","0.00"
"22:34:57","47.4","41.5","80","30.34","145","0","0","0.00","0.00"
"22:39:56","47.2","41.4","80.2","30.34","145","0","0","0.00","0.00"
"22:44:59","47.1","41.4","80.5","30.34","145","0","0","0.00","0.00"
"22:49:57","47","41.6","81.4","30.33","146","0.1","1.2","0.00","0.00"
"22:54:59","46.9","41.6","81.5","30.33","146","0","1.2","0.00","0.00"
"22:59:57","46.9","42","82.9","30.33","146","0","0","0.00","0.00"
"23:04:57","46.8","41.7","82.2","30.33","146","0","0","0.00","0.00"
"23:09:59","46.7","41.6","82.4","30.33","146","0","0","0.00","0.00"
"23:14:59","46.6","41.7","83","30.33","146","0","0","0.00","0.00"
"23:19:57","46.6","41.7","83","30.33","146","0","0","0.00","0.00"
"23:24:59","46.5","41.6","83","30.33","146","0","0","0.00","0.00"
"23:29:57","46.4","41.5","83","30.33","146","0","0","0.00","0.00"
"23:34:56","46.3","41.5","83.5","30.33","146","0","0","0.00","0.00"
"23:39:59","46.3","41.7","84","30.33","145","0.2","1.2","0.00","0.00"
"23:44:57","46.5","41.9","83.9","30.33","145","0","0","0.00","0.00"
"23:49:59","46.5","41.7","83.2","30.33","145","0","0","0.00","0.00"
